Weather History for KVOK - September, 2012

Change the Weather History Date:

Tuesday, September 4, 2012

  Actual Average Record
Temperature  
Mean Temperature 75 °F -  
Max Temperature 90 °F 75 °F 90 °F (2012)
Min Temperature 59 °F 55 °F 41 °F (2013)
Cooling Degree Days 10    
Growing Degree Days 25 (Base 50)    
Moisture  
Dew Point 62 °F    
Average Humidity 59    
Maximum Humidity 94    
Minimum Humidity 27    
Precipitation  
Precipitation 0.00 in - - ()
Sea Level Pressure  
Sea Level Pressure 29.83 in    
Wind  
Wind Speed 6 mph (SSW)    
Max Wind Speed 18 mph    
Max Gust Speed 28 mph    
Visibility 10 miles    
Events Rain , Thunderstorm    
Averages and records for this station are not official NWS values.
T = Trace of Precipitation, MM = Missing Value Source: NWS Daily Summary

Daily Weather History Graph

Daily Weather History Graph

Search for Another Location

Airport or City:

Trip Planner

Search our weather history database for the weather conditions in past years. The results will help you decide how hot, cold, wet, or windy it might be!

Date:

Astronomy

Sep. 04, 2012 Rise Set
Actual Time 6:28 AM CDT 7:30 PM CDT
Civil Twilight 5:58 AM CDT 7:59 PM CDT
Nautical Twilight 5:23 AM CDT 8:35 PM CDT
Astronomical Twilight 4:46 AM CDT 9:11 PM CDT
Moon 9:12 PM CDT (9/4) 10:46 AM CDT (9/4)
Length of Visible Light 14h 01m
Length of Day
13h 02m
Waning Gibbous, 83% of the Moon is Illuminated
Sep 4
Waning Gibbous
Sep 8
Last Quarter
Sep 15
New
Sep 22
First Quarter
Sep 29
Full

Hourly Weather History & Observations

Time (CDT) Temp. Heat Index Dew Point Humidity Pressure Visibility Wind Dir Wind Speed Gust Speed Precip Events Conditions
8:25 AM 68.0 °F - 66.2 °F 94% 29.91 in 10.0 mi SE 3.5 mph - N/A   Overcast
8:55 AM 71.6 °F - 68.0 °F 88% 29.90 in 10.0 mi Variable 3.5 mph - N/A   Mostly Cloudy
9:21 AM 73.4 °F - 68.0 °F 83% 29.90 in 10.0 mi SSE 3.5 mph - N/A   Partly Cloudy
9:55 AM 77.0 °F - 69.8 °F 78% 29.90 in 10.0 mi Variable 3.5 mph - N/A   Partly Cloudy
10:01 AM 77.0 °F - 69.8 °F 78% 29.90 in 10.0 mi South 4.6 mph - N/A   Clear
10:55 AM 78.8 °F - 69.8 °F 74% 29.89 in 10.0 mi SSE 5.8 mph - N/A   Partly Cloudy
11:55 AM 82.4 °F 85.4 °F 68.0 °F 62% 29.88 in 10.0 mi South 8.1 mph - N/A   Partly Cloudy
12:55 PM 86.0 °F 89.4 °F 68.0 °F 55% 29.86 in 10.0 mi WSW 4.6 mph - N/A   Partly Cloudy
1:55 PM 87.8 °F 88.5 °F 62.6 °F 43% 29.84 in 10.0 mi SSW 8.1 mph - N/A   Partly Cloudy
2:55 PM 89.6 °F 92.2 °F 66.2 °F 46% 29.82 in 10.0 mi WSW 4.6 mph - N/A   Partly Cloudy
3:55 PM 89.6 °F 92.2 °F 66.2 °F 46% 29.81 in 10.0 mi WSW 8.1 mph - N/A   Partly Cloudy
4:55 PM 89.6 °F 91.1 °F 64.4 °F 43% 29.79 in 10.0 mi Variable 3.5 mph - N/A   Mostly Cloudy
5:55 PM 84.2 °F 87.3 °F 68.0 °F 58% 29.79 in 10.0 mi South 8.1 mph - N/A   Mostly Cloudy
6:05 PM 84.2 °F 87.3 °F 68.0 °F 58% 29.80 in 10.0 mi SSW 12.7 mph - N/A Rain Light Rain Showers
6:18 PM 82.4 °F 85.4 °F 68.0 °F 62% 29.81 in 10.0 mi SSW 18.4 mph 27.6 mph N/A   Mostly Cloudy
6:49 PM 84.2 °F 83.0 °F 55.4 °F 37% 29.80 in 10.0 mi SW 10.4 mph - N/A Thunderstorm Thunderstorm
6:55 PM 86.0 °F - 51.8 °F 31% 29.79 in 10.0 mi WSW 11.5 mph - N/A Thunderstorm Thunderstorm
7:09 PM 86.0 °F - 48.2 °F 27% 29.77 in 10.0 mi SSW 15.0 mph 21.9 mph N/A Rain Light Rain
7:23 PM 80.6 °F 80.5 °F 55.4 °F 42% 29.79 in 10.0 mi West 10.4 mph - N/A   Mostly Cloudy
7:55 PM 82.4 °F 81.4 °F 53.6 °F 37% 29.81 in 10.0 mi SSW 5.8 mph - N/A   Mostly Cloudy
8:11 PM 80.6 °F - 51.8 °F 37% 29.80 in 10.0 mi SW 9.2 mph - N/A Thunderstorm Thunderstorm
8:26 PM 77.0 °F - 55.4 °F 47% 29.79 in 10.0 mi WSW 6.9 mph - N/A   Clear
8:55 PM 73.4 °F - 58.6 °F 60% 29.82 in 10.0 mi West 9.2 mph - N/A   Clear
9:55 PM 68.9 °F - 56.8 °F 65% 29.80 in 10.0 mi Calm Calm - N/A   Clear
10:55 PM 61.5 °F - 57.6 °F 87% 29.80 in 10.0 mi ESE 6.9 mph - N/A   Clear
11:55 PM 59.4 °F - 55.4 °F 87% 29.81 in 10.0 mi Calm Calm - N/A   Clear